Location: Krasnoyarskiy Pitomnik
(51.1333°N, 71.6167°E)
Time: 10:39:33
(UTC+00:00)

Altair - Pass Details

Date: 22 April 2024
Orbit: 1502 x 1682 km, 47.2° (Epoch: 23 May)

Event Time Altitude Azimuth Distance (km) Brightness Sun altitude
Rises 20:58:15 0° 287° (WNW) 4,808 10.0 -22.2°
Reaches altitude 10° 21:02:40 10° 270° (W) 3,784 9.3 -21.9°
Enters shadow 21:04:46 14° 258° (WSW) 3,426 8.9 -21.7°
